Flag for China Weather past 2 weeks in Tianjin, Tianjin Municipality, China

Now
73 °F

Fog.


Feels Like: 73 °F
Forecast: 70 / 80 °F
Wind: 3 mph from Southeast

Location: Tianjin / Zhangguizhu

Current Time: Aug 30, 2014 at 5:08:18 AM

Latest Report: Aug 30, 2014 at 3:00 AM


Visibility: 1 mi

Pressure: 29.98 "Hg

Humidity: 83%

Dew point: 68 °F

Location of TianjinLocation

Historic Weather in Tianjin — Graph

°F

Tianjin temperature yesterday

Maximum temperature yesterday: 82 °F (at 2:00 PM)
Minimum temperature yesterday: 68 °F (at 1:30 AM)
Average temperature yesterday: 75 °F

Past Weeks' High & Low Weather Summary

 TemperatureHumidityPressure
High93 °F (Aug 16, 3:00 PM)94% (Aug 24, 2:00 AM)30.01 "Hg (Aug 24, 2:00 AM)
Low68 °F (Aug 17, 2:00 AM)15% (Aug 26, 2:30 PM)29.62 "Hg (Aug 23, 2:30 PM)
Average79 °F61%29.83 "Hg
* Reported Aug 15 3:00 AM — Aug 30 3:00 AM, Tianjin, Weather by CustomWeather, © 2014

Note: Actual official high and low records may vary slightly from our data, if they occured in-between our weather recording intervals... More about our weather records

Advertising

Tianjin weather history for previous 24 hours

 ConditionsComfort  
Time TempWeatherWind HumidityBarometerVisibility
3:00 AM
Aug 30
73 °FFog.3 mph83%29.98 "Hg1 mi
2:30 AM73 °FFog.3 mph83%29.98 "Hg1 mi
2:00 AM73 °FFog.3 mph83%29.98 "Hg1 mi
1:30 AM73 °FFog.3 mph83%29.98 "Hg1 mi
1:00 AM73 °FFog.6 mph89%30.01 "Hg1 mi
12:30 AM73 °FFog.1 mph89%30.01 "Hg1 mi
12:00 AM75 °FFog.1 mph83%30.01 "Hg1 mi
11:30 PM
Aug 29
75 °FFog.1 mph83%30.01 "Hg1 mi
11:00 PM73 °FFog.1 mph89%30.01 "Hg1 mi
10:30 PM75 °FFog.1 mph83%30.01 "Hg1 mi
10:00 PM75 °FFog.1 mph78%30.01 "Hg1 mi
9:30 PM75 °FFog.1 mph78%29.98 "Hg1 mi
9:00 PM75 °FHaze.3 mph74%29.98 "Hg2 mi
8:30 PM75 °FHaze.3 mph74%29.98 "Hg2 mi
8:00 PM77 °FHaze.1 mph69%29.98 "Hg2 mi
7:30 PM77 °FHaze.3 mph69%29.98 "Hg2 mi
7:00 PM79 °FHaze.3 mph65%29.95 "Hg2 mi
6:30 PM79 °FHaze.3 mph65%29.95 "Hg2 mi
6:00 PM79 °FHaze.3 mph61%29.95 "Hg2 mi
5:30 PM81 °FHaze.3 mph58%29.95 "Hg2 mi
5:00 PM81 °FHaze.1 mph58%29.95 "Hg2 mi
4:30 PM81 °FHaze.3 mph58%29.95 "Hg2 mi
4:00 PM82 °FHaze.3 mph55%29.95 "Hg2 mi
3:30 PM81 °FHaze.3 mph58%29.95 "Hg2 mi
3:00 PM82 °FHaze.1 mph55%29.95 "Hg2 mi
2:30 PM82 °FHaze.6 mph55%29.95 "Hg2 mi
2:00 PM82 °FHaze.1 mph55%29.98 "Hg2 mi
1:30 PM81 °FHaze.1 mph58%29.98 "Hg2 mi
1:00 PM81 °FHaze.3 mph58%29.98 "Hg2 mi
12:30 PM79 °FHaze.1 mph61%29.98 "Hg3 mi
12:00 PM79 °FHaze.1 mph61%29.98 "Hg3 mi
11:30 AM77 °FHaze.3 mph65%29.98 "Hg2 mi
11:00 AM77 °FHaze.1 mph65%30.01 "Hg2 mi
10:30 AM77 °FHaze.3 mph69%30.01 "Hg2 mi
10:00 AM75 °FHaze.3 mph74%30.01 "Hg1 mi
9:30 AM73 °FFog.3 mph78%30.01 "Hg1 mi
9:00 AM73 °FFog.1 mph78%30.01 "Hg1 mi
8:30 AM72 °FFog.3 mph83%29.98 "Hg1 mi
8:00 AM70 °FFog.3 mph88%29.98 "Hg1 mi
7:30 AM70 °FFog.3 mph88%29.98 "Hg1 mi
7:00 AM68 °FFog.6 mph94%29.98 "Hg1 mi
6:30 AM68 °FFog.6 mph88%29.98 "Hg1 mi
6:00 AM68 °FLight rain. Fog.6 mph94%29.95 "Hg1 mi
5:30 AM68 °FLight rain. Fog.3 mph88%29.95 "Hg1 mi
5:00 AM68 °FLight rain. Fog.1 mph88%29.95 "Hg1 mi
Weather by CustomWeather, © 2014

See weather overviewHow to use our weather pages